FW7807 Weather Reports


time (UTC)temp
C
wind
direction
speed
KPH
gust
KPH
rain 1hr
cm
rain 24hr
cm
rain mn
cm
humidity
%
barometer
mb
20260510210042 19 0 0.0 6.4 0.00 0.00 0.00 66 1012.0
20260510204547 20 0 1.6 6.4 0.00 0.00 0.00 65 1011.8
20260510203038 19 248 4.8 8.0 0.00 0.00 0.00 65 1011.5
20260510201543 20 198 8.0 11.3 0.00 0.00 0.00 63 1011.2
20260510200042 20 0 0.0 3.2 0.00 0.00 0.00 64 1011.1
20260510194543 20 156 1.6 4.8 0.00 0.00 0.00 63 1011.1
20260510193038 20 220 6.4 16.1 0.00 0.00 0.00 63 1010.9
20260510191545 20 241 9.7 16.1 0.00 0.00 0.00 61 1010.8
20260510190041 21 220 9.7 17.7 0.00 0.00 0.00 61 1010.6
20260510184536 21 256 11.3 17.7 0.00 0.00 0.00 59 1010.7
20260510183043 21 243 9.7 19.3 0.00 0.00 0.00 59 1010.4
20260510181548 21 223 14.5 29.0 0.00 0.00 0.00 58 1010.4
20260510180042 22 215 11.3 35.4 0.00 0.00 0.00 56 1010.4
20260510174543 22 261 20.9 38.6 0.00 0.00 0.00 54 1010.4
20260510173057 22 243 25.7 41.8 0.00 0.00 0.00 52 1010.3
20260510171536 23 232 17.7 30.6 0.00 0.00 0.00 53 1010.3
20260510170042 23 215 17.7 33.8 0.00 0.00 0.00 53 1010.1
20260510164558 23 213 25.7 45.1 0.00 0.00 0.00 51 1010.3
20260510163043 23 215 25.7 40.2 0.00 0.00 0.00 52 1010.2
20260510161537 23 236 27.4 40.2 0.00 0.00 0.00 51 1010.4
20260510160037 23 223 24.1 45.1 0.00 0.00 0.00 51 1010.2
20260510154537 23 229 33.8 53.1 0.00 0.00 0.00 50 1010.3
20260510153047 24 227 20.9 45.1 0.00 0.00 0.00 53 1010.4
20260510151539 24 229 30.6 51.5 0.00 0.00 0.00 51 1010.6
20260510150041 23 236 27.4 48.3 0.00 0.00 0.00 51 1010.6
20260510144547 24 205 30.6 48.3 0.00 0.00 0.00 52 1010.8
20260510143043 24 227 27.4 41.8 0.00 0.00 0.00 52 1010.8
20260510141542 24 195 20.9 38.6 0.00 0.00 0.00 53 1010.9
20260510140041 25 214 25.7 46.7 0.00 0.00 0.00 53 1011.1
20260510134550 25 217 20.9 45.1 0.00 0.00 0.00 52 1011.5
20260510133040 25 238 27.4 43.5 0.00 0.00 0.00 51 1011.5
20260510131540 22 198 17.7 32.2 0.00 0.00 0.00 68 1011.8
20260510130038 23 190 17.7 35.4 0.00 0.00 0.00 67 1012.1
20260510124539 23 186 16.1 29.0 0.00 0.00 0.00 68 1012.2
20260510123041 22 186 20.9 33.8 0.00 0.00 0.00 71 1012.5
20260510121540 21 205 19.3 30.6 0.00 0.00 0.00 71 1012.7
20260510120038 21 200 22.5 33.8 0.00 0.00 0.00 72 1012.9
20260510114537 21 197 19.3 35.4 0.00 0.05 0.00 71 1013.0
20260510113037 21 202 17.7 32.2 0.00 0.05 0.00 73 1013.1
20260510111538 20 167 20.9 32.2 0.00 0.05 0.00 73 1013.5
20260510110042 21 212 17.7 27.4 0.00 0.05 0.00 70 1013.6
20260510104542 21 182 12.9 29.0 0.00 0.28 0.00 71 1013.5
20260510103044 21 127 9.7 16.1 0.00 0.28 0.00 69 1013.5
20260510101539 21 121 6.4 14.5 0.00 0.28 0.00 67 1013.6
20260510100047 21 75 3.2 8.0 0.00 0.28 0.00 62 1013.6
20260510094547 21 80 1.6 8.0 0.00 1.17 0.00 66 1013.6
20260510093042 20 0 0.0 8.0 0.00 1.17 0.00 67 1013.9
20260510091539 20 74 1.6 8.0 0.00 1.17 0.00 69 1013.8
20260510090041 19 0 0.0 6.4 0.00 1.17 0.00 71 1014.0
20260510084549 18 190 3.2 9.7 0.00 2.08 0.00 75 1014.3
20260510083047 18 142 1.6 4.8 0.00 2.08 0.00 77 1014.2
20260510081542 17 232 0.0 6.4 0.00 2.08 0.00 79 1014.5
20260510080042 17 0 1.6 6.4 0.00 2.08 0.00 81 1014.4
20260510074541 16 314 3.2 9.7 0.00 2.84 0.00 82 1014.5
20260510073045 16 296 4.8 11.3 0.00 2.84 0.00 85 1014.9
20260510071544 15 342 3.2 6.4 0.00 2.84 0.00 86 1014.5
20260510070043 15 299 0.0 3.2 0.00 2.84 0.00 87 1014.4
20260510064602 14 0 0.0 4.8 0.00 3.35 0.00 88 1014.3
20260510063042 13 300 0.0 4.8 0.00 3.35 0.00 88 1014.3
20260510061542 13 269 1.6 4.8 0.00 3.35 0.00 89 1014.3
20260510060046 12 0 0.0 3.2 0.00 3.35 0.00 88 1014.2
20260510054538 12 0 0.0 3.2 0.00 3.35 0.00 88 1013.9
20260510053036 12 0 0.0 4.8 0.00 3.35 0.00 88 1014.0
20260510051541 12 319 3.2 8.0 0.00 3.35 0.00 88 1013.9
20260510050043 12 360 1.6 8.0 0.00 3.35 0.00 87 1013.8
20260510044542 13 322 3.2 8.0 0.00 3.35 0.00 88 1013.8
20260510043046 13 330 3.2 6.4 0.00 3.35 0.00 88 1013.8
20260510041552 13 0 0.0 0.0 0.00 3.35 0.00 87 1013.6
20260510040042 13 0 0.0 0.0 0.00 3.35 0.00 87 1013.6
20260510034535 13 0 0.0 0.0 0.00 3.35 0.00 87 1013.5
20260510033043 13 0 0.0 3.2 0.00 3.35 0.00 87 1013.4
20260510031541 13 253 1.6 4.8 0.00 3.35 0.00 87 1013.3
20260510030041 13 252 3.2 4.8 0.00 3.35 0.00 87 1013.4
20260510024551 13 248 4.8 8.0 0.00 3.35 0.00 86 1013.4
20260510023037 13 247 3.2 6.4 0.00 3.35 0.00 86 1013.2
20260510021542 13 325 3.2 6.4 0.00 3.35 0.00 86 1013.2
20260510020048 13 267 3.2 4.8 0.00 3.35 0.00 85 1013.0
20260510014542 13 0 0.0 0.0 0.00 3.35 0.00 85 1012.8
20260510013043 13 0 1.6 4.8 0.00 3.35 0.00 85 1013.0
20260510011540 13 0 0.0 4.8 0.00 3.35 0.00 84 1013.0
20260510010056 14 0 0.0 4.8 0.00 3.35 0.00 84 1013.1
20260510004536 14 262 1.6 4.8 0.00 3.35 0.00 84 1013.5
20260510003042 15 0 1.6 4.8 0.00 3.35 0.00 84 1013.5
20260510001539 15 185 1.6 3.2 0.00 3.35 0.00 83 1013.1
20260510000043 16 0 0.0 0.0 0.00 3.35 0.00 84 1013.5
20260509234556 16 0 0.0 3.2 0.00 3.35 0.00 83 1013.7
20260509233036 16 186 0.0 4.8 0.00 3.35 0.00 83 1013.9
20260509231543 16 186 1.6 3.2 0.00 3.35 0.00 82 1014.0
20260509230042 16 186 1.6 3.2 0.00 3.35 0.00 81 1013.9
20260509224540 16 0 0.0 3.2 0.00 3.35 0.00 81 1014.1
20260509223041 16 0 0.0 0.0 0.00 3.35 0.00 81 1014.1
20260509221601 16 0 0.0 1.6 0.00 3.35 0.00 80 1014.0
20260509220041 16 0 1.6 4.8 0.00 3.35 0.00 80 1013.8
20260509214539 16 188 1.6 3.2 0.00 3.35 3.35 79 1013.9
20260509213035 16 0 1.6 11.3 0.00 3.35 3.35 79 1013.7
20260509211542 16 227 8.0 14.5 0.00 3.35 3.35 78 1013.6